Location: San Antonio
(29.4240°N, 98.4930°W)
Time: 10:22:35
(UTC-06:00)

Transit 4A - Pass Details

Date: 16 December 2025
Orbit: 867 x 974 km, 66.8° (Epoch: 17 January)

Event Time Altitude Azimuth Distance (km) Brightness Sun altitude
Rises 18:25:06 0° 213° (SSW) 3,449 11.9 -10.2°
Reaches altitude 10° 18:27:37 10° 217° (SW) 2,507 11.1 -10.8°
Maximum altitude 18:33:18 59° 296° (WNW) 995 8.3 -11.9°
Drops below altitude 10° 18:39:01 10° 16° (NNE) 2,516 9.8 -13.1°
Enters shadow 18:40:47 - 19° (NNE) 3,176 10.3 -13.4°
